DW6658 Weather Reports


time (UTC)temp
C
wind
direction
speed
KPH
gust
KPH
rain 1hr
cm
rain 24hr
cm
rain mn
cm
humidity
%
barometer
mb
20260503013054 16 247 12.9 22.5 0.00 0.00 0.00 39 1011.7
20260503011617 16 252 4.8 11.3 0.00 0.00 0.00 39 1011.7
20260503010058 16 0 0.0 1.6 0.00 0.00 0.00 38 1011.4
20260503004552 16 0 0.0 6.4 0.00 0.00 0.00 36 1011.6
20260503003055 17 151 0.0 4.8 0.00 0.00 0.00 36 1011.7
20260503001609 17 245 1.6 6.4 0.00 0.00 0.00 36 1011.8
20260503000126 17 0 0.0 1.6 0.00 0.00 0.00 37 1012.0
20260502234602 17 283 0.0 8.0 0.00 0.00 0.00 35 1012.1
20260502233053 17 0 0.0 11.3 0.00 0.00 0.00 35 1012.3
20260502231553 17 246 1.6 14.5 0.00 0.00 0.00 33 1012.2
20260502230052 17 256 8.0 22.5 0.00 0.00 0.00 33 1012.5
20260502224555 17 122 8.0 14.5 0.00 0.00 0.00 33 1012.7
20260502223052 17 253 4.8 16.1 0.00 0.00 0.00 34 1012.9
20260502221607 17 262 14.5 24.1 0.00 0.00 0.00 31 1013.1
20260502220100 17 266 12.9 24.1 0.00 0.00 0.00 33 1013.1
20260502214556 17 254 12.9 30.6 0.00 0.00 0.00 32 1013.4
20260502213056 17 259 8.0 22.5 0.00 0.00 0.00 33 1013.6
20260502211555 17 309 14.5 30.6 0.00 0.00 0.00 31 1014.0
20260502210107 17 250 6.4 22.5 0.00 0.00 0.00 31 1014.0
20260502204554 17 238 11.3 25.7 0.00 0.00 0.00 33 1014.3
20260502203054 16 276 16.1 29.0 0.00 0.00 0.00 33 1014.6
20260502201554 16 195 9.7 30.6 0.00 0.00 0.00 32 1014.9
20260502200115 16 257 14.5 24.1 0.00 0.00 0.00 36 1015.0
20260502194549 15 113 12.9 27.4 0.00 0.00 0.00 33 1015.3
20260502193054 16 261 8.0 25.7 0.00 0.00 0.00 34 1015.6
20260502191601 15 285 9.7 22.5 0.00 0.00 0.00 38 1015.7
20260502190058 15 262 6.4 29.0 0.00 0.00 0.00 36 1016.0
20260502184555 15 257 4.8 20.9 0.00 0.00 0.00 35 1016.2
20260502183053 14 314 12.9 30.6 0.00 0.00 0.00 34 1016.5
20260502181549 14 251 12.9 35.4 0.00 0.00 0.00 40 1016.9
20260502163058 12 315 14.5 27.4 0.00 0.00 0.00 38 1018.1
20260502161604 12 313 4.8 25.7 0.00 0.00 0.00 38 1018.3
20260502151607 11 314 8.0 20.9 0.00 0.00 0.00 44 1018.9
20260502130103 5 290 0.0 1.6 0.00 0.00 0.00 66 1019.3
20260502123052 3 0 0.0 0.0 0.00 0.00 0.00 75 1019.5
20260502121550 2 0 0.0 0.0 0.00 0.00 0.00 80 1019.2
20260502114552 0 0 0.0 0.0 0.00 0.00 0.00 88 1019.1
20260502113055 -1 0 0.0 0.0 0.00 0.00 0.00 89 1019.1
20260502111555 -1 0 0.0 0.0 0.00 0.00 0.00 90 1019.0
20260502110059 -1 0 0.0 0.0 0.00 0.00 0.00 90 1019.0
20260502104548 -1 0 0.0 0.0 0.00 0.00 0.00 89 1018.9
20260502103055 -1 0 0.0 0.0 0.00 0.00 0.00 89 1018.9
20260502101603 -1 0 0.0 0.0 0.00 0.00 0.00 89 1018.9
20260502090114 -1 0 0.0 0.0 0.00 0.00 0.00 87 1018.9
20260502070106 1 0 0.0 0.0 0.00 0.00 0.00 77 1019.2
20260502064608 1 0 0.0 0.0 0.00 0.00 0.00 79 1019.4
20260502063054 1 0 0.0 0.0 0.00 0.00 0.00 79 1019.4
20260502061554 1 0 0.0 0.0 0.00 0.00 0.00 76 1019.5
20260502060055 2 0 0.0 0.0 0.00 0.00 0.00 74 1019.5
20260502054557 2 0 0.0 0.0 0.00 0.00 0.00 74 1019.5
20260502053055 2 0 0.0 0.0 0.00 0.00 0.00 75 1019.5
20260502051554 2 0 0.0 0.0 0.00 0.00 0.00 75 1019.5
20260502050055 2 0 0.0 0.0 0.00 0.00 0.00 78 1019.5
20260502044552 2 0 0.0 0.0 0.00 0.00 0.00 76 1019.4
20260502043052 2 0 0.0 0.0 0.00 0.00 0.00 74 1019.3
20260502041558 2 0 0.0 0.0 0.00 0.00 0.00 72 1019.4
20260502040056 2 0 0.0 0.0 0.00 0.00 0.00 71 1019.4
20260502034553 2 0 0.0 0.0 0.00 0.00 0.00 69 1019.4
20260502033057 3 0 0.0 0.0 0.00 0.00 0.00 69 1019.4
20260502031557 3 0 0.0 0.0 0.00 0.00 0.00 65 1019.5
20260502030056 4 0 0.0 0.0 0.00 0.00 0.00 60 1019.5
20260502024607 4 0 0.0 0.0 0.00 0.00 0.00 62 1019.3
20260502023112 4 0 0.0 0.0 0.00 0.00 0.00 66 1019.4
20260502021557 5 0 0.0 0.0 0.00 0.00 0.00 61 1019.3
20260502020055 6 0 0.0 0.0 0.00 0.00 0.00 53 1019.2
20260502014554 7 0 0.0 0.0 0.00 0.00 0.00 52 1019.1